Home > Weather > Kolding > Past weeks

Flag for Denmark Weather for the Past 2 Weeks in Kolding, Denmark

Now
46 °F

Drizzle. Partly sunny.


Feels Like: 39 °F
Forecast: 41 / 46 °F
Wind: 20 mph from Southwest

Location: Vamdrup

Current Time: Feb 6, 2016 at 11:00:44 AM

Latest Report: Feb 6, 2016 at 9:50 AM


Visibility: 2 mi

Pressure: 29.74 "Hg

Humidity: 93%

Dew point: 45 °F

Location of KoldingLocation

Historic Weather in Kolding — Graph

°F

Kolding Temperature Yesterday

Maximum temperature yesterday: 45 °F (at 6:20 PM)
Minimum temperature yesterday: 32 °F (at 1:20 AM)
Average temperature yesterday: 39 °F

High & Low Weather Summary for the Past Weeks

 TemperatureHumidityPressure
High50 °F (Jan 27, 8:20 PM)100% (Jan 22, 9:20 AM)30.36 "Hg (Jan 22, 9:20 AM)
Low16 °F (Jan 22, 9:20 AM)66% (Feb 2, 7:50 AM)29.33 "Hg (Feb 2, 7:20 PM)
Average41 °F90%29.81 "Hg
* Reported Jan 22 9:20 AM — Feb 6 9:50 AM, Kolding, Weather by CustomWeather, © 2016

Note: Actual official high and low records may vary slightly from our data, if they occured in-between our weather recording intervals... More about our weather records

Advertising

Kolding Weather History for the Previous 24 Hours

 ConditionsComfort  
Time TempWeatherWind HumidityBarometerVisibility
9:50 AM
Sat, Feb 6
46 °FDrizzle. Partly sunny.20 mph93%29.74 "Hg2 mi
9:20 AM46 °FDrizzle. Broken clouds.17 mph93%29.74 "Hg4 mi
8:50 AM46 °FCool.20 mph93%29.74 "HgN/A
8:20 AM46 °FCool.18 mph93%29.74 "HgN/A
7:50 AM46 °FCool.20 mph93%29.74 "HgN/A
7:20 AM46 °FCool.18 mph93%29.74 "HgN/A
6:50 AM46 °FCool.18 mph87%29.77 "HgN/A
6:20 AM45 °FQuite cool.15 mph93%29.77 "HgN/A
5:50 AM45 °FQuite cool.16 mph93%29.77 "HgN/A
5:20 AM45 °FQuite cool.20 mph93%29.80 "HgN/A
4:50 AM45 °FQuite cool.18 mph93%29.80 "HgN/A
4:20 AM45 °FQuite cool.21 mph93%29.80 "HgN/A
3:50 AM46 °FCool.21 mph87%29.83 "HgN/A
3:20 AM45 °FQuite cool.18 mph93%29.83 "HgN/A
2:50 AM45 °FQuite cool.17 mph93%29.83 "HgN/A
2:20 AM45 °FQuite cool.18 mph93%29.86 "HgN/A
1:20 AM45 °FQuite cool.20 mph93%29.86 "HgN/A
12:50 AM45 °FQuite cool.17 mph93%29.86 "HgN/A
12:20 AM45 °FQuite cool.16 mph100%29.89 "HgN/A
11:50 PM
Fri, Feb 5
45 °FQuite cool.15 mph93%29.89 "HgN/A
11:20 PM45 °FQuite cool.16 mph93%29.89 "HgN/A
10:50 PM45 °FQuite cool.15 mph93%29.89 "HgN/A
10:20 PM45 °FQuite cool.15 mph93%29.92 "HgN/A
9:50 PM45 °FQuite cool.14 mph93%29.92 "HgN/A
9:20 PM45 °FQuite cool.13 mph93%29.92 "HgN/A
8:50 PM45 °FQuite cool.14 mph93%29.92 "HgN/A
8:20 PM45 °FQuite cool.13 mph93%29.92 "HgN/A
7:50 PM45 °FQuite cool.13 mph93%29.92 "HgN/A
7:20 PM45 °FQuite cool.12 mph93%29.92 "HgN/A
6:50 PM45 °FQuite cool.10 mph93%29.92 "HgN/A
6:20 PM45 °FQuite cool.10 mph93%29.92 "HgN/A
5:50 PM43 °FQuite cool.7 mph100%29.92 "HgN/A
5:20 PM43 °FQuite cool.7 mph100%29.92 "HgN/A
4:20 PM41 °FFog.10 mph100%29.92 "Hg0 mi
4:01 PM41 °FFog.10 mph100%29.92 "Hg1 mi
3:20 PM41 °FLight rain. Fog.13 mph93%29.95 "Hg2 mi
1:50 PM41 °FLight rain. Fog.15 mph93%29.98 "Hg2 mi
1:20 PM41 °FLight rain. Broken clouds.16 mph93%29.98 "Hg2 mi
11:50 AM39 °FLight rain. Broken clouds.13 mph100%30.01 "Hg2 mi
11:20 AM39 °FLight rain. Broken clouds.10 mph100%30.04 "Hg4 mi
Weather by CustomWeather, © 2016

See weather overviewHow to use our weather pages